Zurück zum Katalog

YUNHAI 2-1C

AktivWissenschaftLEO
NORAD 43911·PAYLOAD·🇨🇳 China

Gestartet Dec 29, 2018 von Jiuquan Satellite Launch Center

Loading…

Nächste Überflüge (nächste 24 Stunden)

TLE

AktuellSource: Space-Track

Epoche: Sep 14, 2026, 14:12 UTC

1 43911U 18112C   26257.59212281  .00000016  00000-0  69544-4 0  9992
2 43911  50.0134 327.9443 0000584 121.8877 238.2095 14.29026499404571

Verfolge YUNHAI 2-1C in Echtzeit mit AllMySat

Download on the App Store